Location: Tauranga
(37.6860°S, 176.1670°E)
Time: 03:30:54
(UTC+13:00)

Cosmos 2360 Rocket - Pass Details

Date: 24 January 2019
Orbit: 834 x 845 km, 71.0° (Epoch: 15 February)

Event Time Altitude Azimuth Distance (km) Brightness Sun altitude
Exits shadow 22:43:42 - 334° (NNW) 2,689 4.6 -21.3°
Reaches altitude 10° 22:44:17 10° 333° (NNW) 2,468 4.4 -21.4°
Maximum altitude 22:49:57 76° 248° (WSW) 881 2.3 -22.1°
Drops below altitude 10° 22:55:42 10° 161° (SSE) 2,494 5.0 -22.8°
Sets 22:58:11 0° 159° (SSE) 3,435 5.8 -23.2°
